www.pogodaiklimat.ru

Погода и климат >> Архив погоды >> Россия >> Якутия >> Белая Гора


ПОГОДА в Белой Горе

  • Прогноз погоды в Белой Горе
  • Монитор погоды в Белой Горе
  • Климат города

АРХИВ ПОГОДЫ в Белой Горе

Время (UTC), дата Ветер
(напр.,м/с)
 
Видим.   Явления Облачность Т
(С)
Тd
(С)
f
(%)
Тe
(С)
Тes
(С)
Комфортность P
(гПа)
Po
(гПа)
Тmin
(С)
Tmax
(С)
R
(мм)
R24
(мм)
S
(см)
21 18.04 штиль 0 н/о н/о -14.0 -15.2 91 -14 -14 1011.7 1005.8 -17.5
00 19.04 С 1 50 км ясно -5.4 -8.4 79 -8 -1 1011.5 1006.2
03 19.04 штиль 0 50 км 4/4 600 м
[Cu hum]
-2.0 -7.9 64 -3 +3 1012.0 1006.8
06 19.04 С 2 50 км ясно -1.4 -8.7 58 -5 -1 1012.3 1007.1
09 19.04 Ю 1 н/о н/о -1.5 -9.3 55 -3 -3 1013.4 1007.8 -0.7
12 19.04 СВ 1 н/о н/о -9.1 -12.3 78 -11 -11 1014.4 1008.6
15 19.04 С 1 н/о н/о -15.8 -17.1 90 -18 -18 1015.1 1009.2
18 19.04 штиль 0 н/о н/о -17.7 -19.1 89 -18 -18 1016.1 1010.2
21 19.04 СВ 1 н/о н/о -12.5 -13.4 93 -15 -15 1016.9 1011.1 -18.9
00 20.04 В 3 50 км ясно -4.6 -11.2 60 -10 -5 1016.2 1010.9
03 20.04 В 2 50 км ясно +0.6 -10.2 44 -2 +5 1015.7 1010.5
06 20.04 В 2 50 км ясно +1.0 -10.4 42 -2 +2 1015.8 1010.6
09 20.04 В 3 50 км 9/0
[Cs]
-1.6 -9.0 57 -6 -6 1016.4 1011.1 +1.1
12 20.04 В 2 20 км 8/0
[Cs]
-7.2 -11.0 74 -11 -11 1016.8 1011.4
15 20.04 В 1 н/о н/о -13.1 -14.2 91 -15 -15 1017.5 1011.6
18 20.04 СВ 1 н/о н/о -14.8 -16.0 91 -17 -17 1017.3 1011.4
21 20.04 СВ 2 н/о н/о -10.2 -11.5 90 -15 -15 1017.3 1011.5 -15.8
00 21.04 СВ 3 н/о н/о -4.8 -9.8 68 -10 -10 1016.6 1010.9
03 21.04 В 3 н/о н/о -1.1 -7.9 60 -5 -5 1015.9 1010.3
06 21.04 В 5 н/о н/о -0.3 -6.3 64 -6 -6 1015.3 1009.7
09 21.04 В 5 н/о н/о -2.7 -7.6 69 -9 -9 1015.7 1010.1 +0.2
12 21.04 СВ 2 н/о н/о -4.8 -8.7 74 -9 -9 1016.2 1010.5
15 21.04 В 3 н/о н/о -6.5 -9.3 80 -12 -12 1016.0 1010.3
18 21.04 СВ 2 н/о н/о -7.5 -9.7 84 -12 -12 1016.5 1010.8
21 21.04 В 3 н/о н/о -6.8 -10.5 75 -12 -12 1017.1 1011.3 -7.8
00 22.04 В 2 н/о н/о -3.3 -9.3 63 -7 -7 1017.2 1011.5 -7.9
03 22.04 СВ 3 н/о н/о +0.5 -7.1 57 -4 -4 1017.0 1011.4
06 22.04 СЗ 1 н/о н/о +2.2 -6.7 52 +1 +1 1017.0 1011.5
09 22.04 ЮЗ 2 н/о н/о +0.4 -8.0 53 -3 -3 1017.7 1012.1 +2.9
12 22.04 штиль 0 н/о н/о -4.8 -9.2 71 -6 -6 1018.4 1012.7
15 22.04 В 1 н/о н/о -11.9 -13.5 88 -14 -14 1019.0 1013.1
18 22.04 штиль 0 н/о н/о -15.2 -16.4 91 -15 -15 1018.9 1013.0
21 22.04 СВ 1 н/о н/о -9.0 -12.5 76 -11 -11 1018.7 1013.0 -15.9
00 23.04 ЮВ 3 50 км ясно -0.0 -6.7 61 -4 +1 1016.9 1011.7
03 23.04 Ю 4 50 км ясно +1.8 -7.2 51 -3 +2 1015.4 1010.2
06 23.04 Ю 4 50 км ясно +2.8 -7.9 45 -1 +1 1014.0 1008.8
09 23.04 Ю 3 н/о н/о +2.8 -7.7 46 -1 -1 1013.5 1008.0 +3.2
12 23.04 СЗ 1 н/о н/о -4.2 -8.6 71 -6 -6 1012.8 1007.2
15 23.04 штиль 0 н/о н/о -11.3 -12.8 89 -11 -11 1011.4 1005.6
18 23.04 СЗ 1 н/о н/о -15.3 -16.4 91 -18 -18 1009.9 1004.0
21 23.04 штиль 0 н/о н/о -7.3 -11.4 72 -8 -8 1008.1 1002.4 -15.3
00 24.04 СВ 3 50 км ясно -0.3 -9.0 52 -4 +1 1005.1 999.9
03 24.04 В 4 50 км ясно +4.2 -9.3 37 +1 +6 1002.1 997.0
06 24.04 ЮВ 3 50 км ясно +5.2 -9.0 35 +3 +6 999.5 994.5
09 24.04 Ю 2 4000 м ясно +4.6 -8.7 37 +3 +3 999.2 993.8 +5.6
12 24.04 В 3 н/о н/о -1.4 -5.5 74 -6 -6 999.1 993.6
15 24.04 В 4 н/о н/о -3.9 -6.9 80 -10 -10 998.4 992.8
18 24.04 СВ 3 н/о н/о -7.2 -9.6 83 -13 -13 998.7 993.1
21 24.04 СВ 4 н/о н/о -6.9 -11.1 72 -13 -13 999.2 993.6 -8.3
00 25.04 СВ 4 50 км 9/0
[Ci sp]
-4.0 -9.4 66 -10 -7 999.1 993.9
03 25.04 СВ 4 50 км 9/0
[Ci sp]
-0.6 -7.6 59 -6 -2 1000.0 994.8
06 25.04 СВ 4 50 км 5/0
[Ci sp]
+2.6 -7.2 48 -2 +1 1000.4 995.3
09 25.04 С 4 н/о н/о -0.5 -8.0 57 -6 -6 1002.9 997.4 +3.0
12 25.04 С 4 н/о н/о -6.9 -11.3 71 -13 -13 1005.3 999.7
15 25.04 СВ 2 н/о н/о -12.2 -14.9 80 -17 -17 1006.6 1000.8
18 25.04 СЗ 1 н/о н/о -14.1 -16.2 84 -17 -17 1007.6 1001.8

 

Местоположение метеостанции Белая Гора (Якутия, Россия): широта 68.55 долгота 146.20 высота над уровнем моря 41 м.

В архиве по умолчанию представлена погода в Белой Горе за последнюю неделю. Архивные данные за месяц целиком и за предыдущие месяцы, начиная с января 2011 года, Вы можете получить, выбрав интересующий диапазон дат из раскрывающегося списка и нажав кнопку "Ввод!".


*Определитесь, кто Вы:
робот инопланетянин человек

Внимание! Время в таблицах - всемирное. Для получения местного времени необходимо прибавить поправку, которая в Белой Горе равна 11 ч.

Смотрите также архив погоды в соседних городах и на ближайших метеорологических станциях:

Погода в Чокурдахе (Якутия, Россия) (238 км)
Погода в Усть-Моме (Якутия, Россия) (266 км)
Погода в Депутатском (Якутия, Россия) (272 км)
Погода в Среднеколымске (Якутия, Россия) (335 км)
Погода в Андрюшкино (Якутия, Россия) (340 км)
Погода в Зырянке (Якутия, Россия) (373 км)
Погода в Усть-Куйге (Якутия, Россия) (447 км)
Погода в Усть-Чарках (Якутия, Россия) (449 км)
Погода в Юбилейной (Якутия, Россия) (458 км)
Погода в Усть-Нере (Якутия, Россия) (468 км)

Пояснения к столбцам:

Ветер - указаны скорость ветра в м/с - средняя за 10 мин, порывы в срок и между сроками (в фигурных скобках) и направление, откуда дует ветер: С - северный, СВ - северо-восточный, В - восточный, ЮВ - юго-восточный, Ю - южный, ЮЗ - юго-западный, З - западный, СЗ - северо-западный.
Видимость - горизонтальная дальность видимости в метрах или километрах. При видимости от 1 до 10 км при отсутствии осадков обычно наблюдается дымка, при ухудшении видимости до 1 км и менее - туман. В сухую погоду видимость может ухудшаться дымом, пылью или мглою.
Явления - указаны атмосферные явления, наблюдавшиеся в срок или в последний час перед сроком; фигурными скобками обозначены явления, наблюдавшиеся между сроками (за 1-3 часа до срока); квадратными скобками обозначены град или гололедные отложения с указанием их диаметра в мм.
Облачность - указаны через наклонную черту общая и нижняя облачность в баллах и высота нижней границы облаков в метрах; квадратными скобками обозначены формы облаков: Ci - перистые, Cs - перисто-слоистые, Cc - перисто-кучевые, Ac - высококучевые, As - высокослоистые, Sc - слоисто-кучевые, Ns - слоисто-дождевые, Cu - кучевые, Cb - кучево-дождевые. Подробнее классификацию облаков см. в Атласе облаков (PDF).
T - Температура воздуха - температура, измеренная на высоте 2 м над землей.
Td - Температура точки росы - температура, при понижении до которой содержащийся в воздухе водяной пар достигнет насыщения.
f - Относительная влажность воздуха - влажноcть воздуха, измеренная на высоте 2 м над землей.
Te - Эффективная температура - температура, которую ощущает одетый по сезону человек в тени. Характеристика душности погоды. При расчете учитывается влияние влажности воздуха и скорости ветра на теплоощущения человека.
Tes - Эффективная температура на солнце - температура, которую ощущает человек, с поправкой на солнечный нагрев. Характеристика знойности погоды. Зависит от высоты солнца над горизонтом, облачности и скорости ветра. Ночью, в пасмурную погоду, а также при ветре 12 м/с и более поправка равна нулю.
P - Атмосферное давление - приведенное к уровню моря атмосферное давление.
Po - Атмосферное давление - измеренное на уровне метеостанции атмосферное давление.
Tmin - Минимальная температура - минимум температуры воздуха на высоте 2 м над землей.
Tmax - Максимальная температура - максимум температуры воздуха на высоте 2 м над землей.
R - Количество осадков - Количество выпавших осадков за период времени, мм. При наведении курсора мыши на число - период времени, за который выпало указанное количество осадков.
R24 - Количество осадков - Количество выпавших осадков за 24 часа, мм.
S - Снежный покров - Высота снежного покрова, см. При наведении курсора мыши на число - состояние снежного покрова и степень покрытия местности в баллах.